QPF
0.05 0.03 0.03 0.02 0.01 0.01 0.01 0.01 0.01 0.01 0.00 0.00 0.00 0.00 0.00 0.00 0.00 0.00 0.01 0.00 0.00 0.01 0.00 0.00 0.00 0.01 0.01 0.02 0.03 0.04 0.04 0.02 0.03 0.05 0.06 0.07 0.08 0.10 0.12 0.14 0.15 0.13 0.11 0.11
0.04 0.03 0.01 0.01 0.01 0.01 0.01 0.01 0.01 0.01 0.00 0.00 0.00 0.00 0.00 0.01 0.01 0.01 0.01 0.01 0.01 0.01 0.00 0.01 0.01 0.03 0.04 0.04 0.04 0.05 0.04 0.03 0.03 0.05 0.06 0.06 0.08 0.11 0.13 0.14 0.14 0.12 0.11 0.10
0.04 0.03 0.01 0.01 0.01 0.01 0.01 0.01 0.01 0.01 0.00 0.00 0.00 0.01 0.00 0.01 0.01 0.01 0.01 0.01 0.01 0.01 0.01 0.02 0.04 0.03 0.03 0.04 0.05 0.05 0.05 0.05 0.06 0.06 0.06 0.07 0.10 0.13 0.14 0.14 0.14 0.12 0.10 0.11
0.03 0.02 0.02 0.02 0.02 0.02 0.02 0.01 0.01 0.01 0.01 0.02 0.01 0.02 0.01 0.01 0.01 0.01 0.01 0.02 0.02 0.03 0.04 0.04 0.04 0.02 0.03 0.06 0.06 0.06 0.08 0.09 0.08 0.09 0.10 0.10 0.12 0.15 0.14 0.14 0.14 0.14 0.12 0.11
0.03 0.02 0.02 0.02 0.02 0.01 0.01 0.01 0.01 0.01 0.01 0.02 0.01 0.01 0.01 0.01 0.01 0.02 0.02 0.03 0.04 0.05 0.05 0.04 0.04 0.03 0.04 0.07 0.08 0.10 0.11 0.10 0.08 0.08 0.10 0.12 0.14 0.15 0.14 0.13 0.14 0.15 0.15 0.12
0.02 0.02 0.02 0.02 0.01 0.01 0.01 0.01 0.01 0.01 0.02 0.02 0.01 0.01 0.02 0.01 0.03 0.03 0.02 0.03 0.05 0.06 0.05 0.04 0.04 0.04 0.05 0.07 0.09 0.10 0.09 0.08 0.07 0.07 0.08 0.10 0.12 0.12 0.15 0.15 0.13 0.15 0.14 0.10
0.03 0.02 0.02 0.01 0.01 0.01 0.02 0.03 0.04 0.04 0.03 0.03 0.01 0.01 0.02 0.02 0.02 0.04 0.04 0.03 0.04 0.04 0.04 0.03 0.03 0.04 0.06 0.09 0.09 0.09 0.10 0.08 0.07 0.06 0.08 0.10 0.09 0.09 0.12 0.13 0.12 0.12 0.12 0.08
0.03 0.02 0.01 0.01 0.01 0.01 0.02 0.03 0.05 0.05 0.04 0.02 0.01 0.01 0.01 0.02 0.02 0.03 0.04 0.03 0.03 0.04 0.04 0.04 0.05 0.04 0.05 0.08 0.10 0.10 0.13 0.09 0.08 0.08 0.08 0.10 0.09 0.08 0.11 0.10 0.09 0.08 0.07 0.06
0.02 0.02 0.00 0.00 0.00 0.01 0.02 0.02 0.02 0.03 0.02 0.01 0.01 0.01 0.01 0.01 0.01 0.01 0.02 0.02 0.02 0.04 0.05 0.05 0.05 0.05 0.04 0.08 0.10 0.11 0.10 0.09 0.10 0.10 0.10 0.11 0.09 0.10 0.09 0.07 0.07 0.06 0.05 0.05
0.01 0.01 0.00 0.00 0.01 0.01 0.01 0.01 0.01 0.02 0.02 0.02 0.01 0.01 0.01 0.01 0.01 0.01 0.01 0.01 0.01 0.02 0.03 0.04 0.05 0.05 0.05 0.08 0.09 0.09 0.09 0.09 0.10 0.12 0.12 0.10 0.08 0.08 0.06 0.05 0.05 0.06 0.05 0.05
0.00 0.01 0.01 0.01 0.01 0.01 0.01 0.01 0.01 0.01 0.01 0.01 0.02 0.01 0.01 0.00 0.00 0.00 0.01 0.01 0.01 0.01 0.02 0.03 0.04 0.05 0.06 0.07 0.07 0.07 0.08 0.09 0.10 0.13 0.13 0.10 0.09 0.07 0.06 0.06 0.05 0.05 0.05 0.05
0.00 0.00 0.00 0.00 0.00 0.00 0.00 0.01 0.01 0.01 0.01 0.01 0.01 0.01 0.00 0.00 0.00 0.00 0.01 0.01 0.01 0.01 0.01 0.02 0.03 0.04 0.05 0.06 0.06 0.06 0.07 0.07 0.08 0.09 0.11 0.10 0.08 0.08 0.07 0.06 0.05 0.05 0.04 0.03
0.01 0.01 0.01 0.01 0.01 0.00 0.00 0.00 0.00 0.01 0.01 0.01 0.01 0.01 0.00 0.00 0.00 0.00 0.01 0.01 0.00 0.00 0.00 0.01 0.01 0.02 0.02 0.03 0.05 0.06 0.06 0.06 0.06 0.06 0.07 0.08 0.06 0.06 0.06 0.05 0.04 0.04 0.03 0.03
0.01 0.01 0.01 0.01 0.01 0.00 0.00 0.00 0.00 0.00 0.01 0.01 0.00 0.00 0.00 0.00 0.00 0.00 0.01 0.00 0.00 0.00 0.01 0.01 0.01 0.01 0.02 0.02 0.04 0.04 0.05 0.06 0.06 0.05 0.05 0.06 0.05 0.05 0.05 0.04 0.03 0.03 0.02 0.02
0.00 0.01 0.00 0.00 0.00 0.00 0.00 0.00 0.00 0.00 0.00 0.01 0.00 0.00 0.00 0.00 0.00 0.00 0.00 0.00 0.00 0.00 0.01 0.01 0.02 0.02 0.02 0.02 0.02 0.02 0.03 0.04 0.04 0.04 0.04 0.04 0.04 0.04 0.05 0.05 0.05 0.04 0.03 0.02
0.00 0.00 0.00 0.00 0.00 0.00 0.00 0.00 0.00 0.00 0.00 0.00 0.00 0.00 0.00 0.00 0.00 0.00 0.00 0.00 0.00 0.00 0.01 0.02 0.02 0.02 0.03 0.02 0.02 0.02 0.02 0.03 0.03 0.03 0.03 0.03 0.03 0.03 0.03 0.04 0.04 0.05 0.05 0.05
0.00 0.00 0.00 0.00 0.00 0.00 0.00 0.00 0.00 0.00 0.00 0.00 0.00 0.00 0.01 0.01 0.00 0.00 0.00 0.00 0.00 0.01 0.01 0.02 0.02 0.03 0.03 0.03 0.02 0.03 0.03 0.03 0.02 0.03 0.03 0.03 0.02 0.02 0.02 0.02 0.02 0.03 0.04 0.05
0.00 0.00 0.00 0.00 0.00 0.00 0.00 0.00 0.00 0.00 0.00 0.00 0.00 0.00 0.00 0.00 0.00 0.00 0.00 0.00 0.00 0.00 0.00 0.01 0.02 0.02 0.02 0.03 0.03 0.02 0.02 0.03 0.02 0.02 0.02 0.02 0.02 0.02 0.02 0.02 0.02 0.02 0.02 0.02
0.00 0.00 0.00 0.00 0.00 0.00 0.00 0.00 0.00 0.00 0.00 0.00 0.00 0.00 0.00 0.00 0.00 0.00 0.00 0.00 0.00 0.00 0.00 0.00 0.01 0.01 0.02 0.02 0.03 0.03 0.03 0.03 0.03 0.02 0.02 0.02 0.02 0.03 0.03 0.02 0.03 0.03 0.03 0.03
0.00 0.00 0.00 0.00 0.00 0.00 0.00 0.00 0.00 0.00 0.00 0.00 0.00 0.00 0.00 0.00 0.00 0.01 0.00 0.00 0.00 0.00 0.00 0.00 0.00 0.00 0.01 0.02 0.02 0.03 0.03 0.03 0.02 0.02 0.02 0.01 0.02 0.02 0.03 0.03 0.03 0.04 0.04 0.04
0.00 0.00 0.00 0.00 0.00 0.00 0.00 0.00 0.00 0.00 0.00 0.00 0.00 0.00 0.00 0.00 0.00 0.00 0.00 0.00 0.00 0.00 0.00 0.00 0.00 0.00 0.00 0.00 0.01 0.02 0.02 0.03 0.03 0.02 0.02 0.02 0.02 0.02 0.02 0.03 0.03 0.03 0.04 0.05
0.00 0.00 0.00 0.00 0.00 0.00 0.00 0.00 0.00 0.00 0.00 0.00 0.00 0.00 0.00 0.00 0.00 0.00 0.00 0.00 0.00 0.00 0.00 0.00 0.00 0.00 0.00 0.00 0.00 0.00 0.01 0.02 0.02 0.02 0.02 0.02 0.02 0.02 0.02 0.02 0.02 0.03 0.03 0.03
0.00 0.00 0.00 0.00 0.00 0.00 0.00 0.00 0.00 0.00 0.00 0.00 0.00 0.00 0.00 0.00 0.00 0.00 0.00 0.00 0.00 0.00 0.00 0.00 0.00 0.00 0.00 0.00 0.00 0.00 0.00 0.01 0.01 0.01 0.02 0.02 0.02 0.01 0.01 0.01 0.02 0.01 0.01 0.01
0.00 0.00 0.00 0.00 0.00 0.00 0.00 0.00 0.00 0.00 0.00 0.00 0.00 0.00 0.00 0.00 0.00 0.00 0.00 0.00 0.00 0.00 0.00 0.00 0.00 0.00 0.00 0.00 0.00 0.00 0.00 0.00 0.00 0.00 0.01 0.01 0.01 0.01 0.01 0.01 0.01 0.01 0.01 0.01
0.00 0.00 0.00 0.00 0.00 0.00 0.00 0.00 0.00 0.00 0.00 0.00 0.00 0.00 0.00 0.00 0.00 0.00 0.00 0.00 0.00 0.00 0.00 0.00 0.00 0.00 0.00 0.00 0.00 0.00 0.00 0.00 0.00 0.00 0.00 0.00 0.00 0.00 0.00 0.00 0.00 0.00 0.00 0.00
0.00 0.00 0.00 0.00 0.00 0.00 0.00 0.00 0.00 0.00 0.00 0.00 0.00 0.00 0.00 0.00 0.00 0.00 0.00 0.00 0.00 0.00 0.00 0.00 0.00 0.00 0.00 0.00 0.00 0.00 0.00 0.00 0.00 0.00 0.00 0.00 0.00 0.00 0.00 0.00 0.00 0.00 0.00 0.00
MSLP
1014.96 1015.24 1015.54 1015.85 1016.15 1016.44 1016.71 1016.93 1017.08 1017.14 1017.08 1016.91 1016.61 1016.22 1015.77 1015.31 1014.89 1014.56 1014.34 1014.22 1014.20 1014.24 1014.30 1014.33 1014.30 1014.20 1014.03 1013.82 1013.59 1013.38 1013.23 1013.13 1013.09 1013.08 1013.08 1013.06 1012.99 1012.87 1012.71 1012.53 1012.36 1012.24 1012.20 1012.27
1015.64 1015.93 1016.22 1016.49 1016.73 1016.94 1017.11 1017.23 1017.30 1017.27 1017.15 1016.92 1016.59 1016.18 1015.74 1015.30 1014.93 1014.67 1014.52 1014.50 1014.56 1014.67 1014.78 1014.82 1014.77 1014.61 1014.36 1014.04 1013.70 1013.39 1013.14 1012.97 1012.88 1012.83 1012.81 1012.78 1012.69 1012.55 1012.36 1012.14 1011.93 1011.77 1011.70 1011.74
1016.29 1016.59 1016.87 1017.10 1017.28 1017.42 1017.53 1017.59 1017.58 1017.50 1017.33 1017.06 1016.70 1016.28 1015.84 1015.43 1015.11 1014.91 1014.85 1014.91 1015.07 1015.26 1015.41 1015.47 1015.40 1015.18 1014.82 1014.38 1013.89 1013.43 1013.04 1012.75 1012.55 1012.43 1012.36 1012.29 1012.19 1012.04 1011.84 1011.61 1011.39 1011.22 1011.15 1011.19
1016.86 1017.18 1017.43 1017.63 1017.78 1017.88 1017.94 1017.96 1017.92 1017.81 1017.61 1017.31 1016.93 1016.50 1016.06 1015.66 1015.37 1015.22 1015.23 1015.37 1015.61 1015.87 1016.08 1016.16 1016.07 1015.78 1015.33 1014.74 1014.10 1013.46 1012.90 1012.44 1012.11 1011.90 1011.75 1011.64 1011.53 1011.38 1011.20 1010.99 1010.80 1010.66 1010.60 1010.66
1017.35 1017.65 1017.89 1018.06 1018.18 1018.26 1018.30 1018.31 1018.27 1018.16 1017.95 1017.65 1017.25 1016.80 1016.34 1015.94 1015.66 1015.53 1015.57 1015.77 1016.07 1016.39 1016.65 1016.76 1016.66 1016.33 1015.78 1015.07 1014.27 1013.46 1012.71 1012.09 1011.62 1011.29 1011.07 1010.92 1010.80 1010.68 1010.54 1010.39 1010.25 1010.16 1010.15 1010.24
1017.73 1018.00 1018.21 1018.35 1018.45 1018.53 1018.58 1018.61 1018.59 1018.50 1018.31 1018.01 1017.60 1017.13 1016.64 1016.20 1015.89 1015.74 1015.79 1016.01 1016.35 1016.72 1017.02 1017.16 1017.07 1016.72 1016.12 1015.32 1014.39 1013.43 1012.54 1011.77 1011.17 1010.73 1010.44 1010.27 1010.15 1010.07 1009.99 1009.92 1009.86 1009.83 1009.87 1009.99
1017.99 1018.22 1018.39 1018.50 1018.59 1018.66 1018.74 1018.81 1018.83 1018.78 1018.62 1018.33 1017.91 1017.41 1016.87 1016.39 1016.02 1015.83 1015.84 1016.05 1016.40 1016.79 1017.13 1017.32 1017.26 1016.93 1016.32 1015.48 1014.49 1013.45 1012.45 1011.57 1010.87 1010.36 1010.02 1009.83 1009.74 1009.70 1009.69 1009.69 1009.71 1009.75 1009.84 1009.99
1018.14 1018.31 1018.42 1018.50 1018.58 1018.66 1018.77 1018.88 1018.95 1018.95 1018.83 1018.55 1018.13 1017.60 1017.01 1016.46 1016.02 1015.76 1015.71 1015.88 1016.21 1016.62 1016.99 1017.23 1017.23 1016.96 1016.40 1015.59 1014.60 1013.54 1012.51 1011.59 1010.84 1010.28 1009.93 1009.73 1009.66 1009.66 1009.71 1009.77 1009.85 1009.95 1010.08 1010.24
1018.16 1018.27 1018.34 1018.38 1018.43 1018.53 1018.66 1018.80 1018.92 1018.97 1018.88 1018.63 1018.21 1017.66 1017.03 1016.40 1015.88 1015.54 1015.43 1015.54 1015.84 1016.25 1016.65 1016.95 1017.04 1016.86 1016.40 1015.69 1014.78 1013.78 1012.78 1011.87 1011.13 1010.58 1010.22 1010.03 1009.97 1010.00 1010.09 1010.19 1010.30 1010.43 1010.57 1010.73
1018.08 1018.14 1018.15 1018.15 1018.18 1018.27 1018.40 1018.57 1018.73 1018.80 1018.75 1018.52 1018.12 1017.55 1016.89 1016.22 1015.64 1015.23 1015.04 1015.10 1015.36 1015.75 1016.19 1016.55 1016.74 1016.69 1016.37 1015.80 1015.04 1014.16 1013.27 1012.44 1011.74 1011.22 1010.88 1010.71 1010.66 1010.70 1010.78 1010.89 1011.01 1011.13 1011.25 1011.39
1017.92 1017.93 1017.90 1017.86 1017.85 1017.91 1018.03 1018.19 1018.35 1018.44 1018.40 1018.20 1017.81 1017.26 1016.60 1015.92 1015.30 1014.84 1014.60 1014.61 1014.83 1015.22 1015.68 1016.10 1016.40 1016.49 1016.34 1015.95 1015.37 1014.67 1013.92 1013.22 1012.62 1012.15 1011.85 1011.68 1011.63 1011.65 1011.72 1011.80 1011.88 1011.97 1012.05 1012.15
1017.72 1017.69 1017.61 1017.52 1017.47 1017.47 1017.54 1017.67 1017.80 1017.87 1017.84 1017.66 1017.30 1016.78 1016.15 1015.49 1014.88 1014.41 1014.15 1014.13 1014.33 1014.70 1015.18 1015.66 1016.05 1016.28 1016.30 1016.11 1015.73 1015.23 1014.66 1014.10 1013.61 1013.22 1012.96 1012.80 1012.73 1012.73 1012.75 1012.78 1012.81 1012.84 1012.87 1012.92
1017.51 1017.45 1017.33 1017.19 1017.07 1016.99 1016.99 1017.03 1017.10 1017.13 1017.08 1016.90 1016.57 1016.10 1015.53 1014.93 1014.37 1013.94 1013.69 1013.66 1013.85 1014.23 1014.72 1015.24 1015.71 1016.06 1016.23 1016.23 1016.05 1015.75 1015.36 1014.96 1014.59 1014.29 1014.07 1013.92 1013.83 1013.79 1013.76 1013.73 1013.70 1013.67 1013.64 1013.64
1017.33 1017.25 1017.08 1016.88 1016.67 1016.50 1016.38 1016.31 1016.27 1016.23 1016.13 1015.95 1015.65 1015.25 1014.77 1014.25 1013.78 1013.42 1013.22 1013.21 1013.41 1013.78 1014.28 1014.83 1015.36 1015.80 1016.11 1016.26 1016.27 1016.14 1015.94 1015.69 1015.44 1015.22 1015.04 1014.91 1014.81 1014.73 1014.65 1014.57 1014.48 1014.39 1014.32 1014.27
1017.20 1017.09 1016.88 1016.61 1016.30 1016.01 1015.75 1015.54 1015.38 1015.23 1015.07 1014.86 1014.59 1014.26 1013.87 1013.47 1013.11 1012.84 1012.71 1012.76 1012.98 1013.35 1013.85 1014.41 1014.98 1015.48 1015.89 1016.17 1016.32 1016.36 1016.31 1016.20 1016.06 1015.92 1015.79 1015.68 1015.58 1015.47 1015.37 1015.25 1015.12 1015.00 1014.89 1014.80
1017.11 1016.98 1016.72 1016.37 1015.96 1015.54 1015.14 1014.77 1014.46 1014.20 1013.95 1013.72 1013.47 1013.19 1012.91 1012.63 1012.39 1012.23 1012.19 1012.29 1012.54 1012.92 1013.41 1013.98 1014.55 1015.10 1015.57 1015.95 1016.22 1016.39 1016.46 1016.47 1016.43 1016.37 1016.30 1016.22 1016.12 1016.02 1015.90 1015.77 1015.63 1015.49 1015.37 1015.27
1017.04 1016.88 1016.57 1016.15 1015.65 1015.10 1014.55 1014.05 1013.59 1013.21 1012.89 1012.61 1012.37 1012.15 1011.96 1011.79 1011.67 1011.62 1011.67 1011.82 1012.10 1012.49 1012.97 1013.52 1014.09 1014.65 1015.17 1015.61 1015.97 1016.23 1016.42 1016.53 1016.58 1016.59 1016.57 1016.52 1016.46 1016.37 1016.26 1016.14 1016.02 1015.89 1015.78 1015.69
1016.94 1016.74 1016.39 1015.91 1015.33 1014.68 1014.02 1013.39 1012.83 1012.34 1011.95 1011.64 1011.41 1011.23 1011.11 1011.04 1011.02 1011.07 1011.18 1011.39 1011.68 1012.07 1012.54 1013.06 1013.62 1014.18 1014.72 1015.20 1015.62 1015.96 1016.23 1016.42 1016.54 1016.62 1016.65 1016.65 1016.62 1016.57 1016.49 1016.41 1016.32 1016.22 1016.14 1016.07
1016.74 1016.50 1016.12 1015.60 1014.96 1014.26 1013.53 1012.83 1012.19 1011.64 1011.21 1010.88 1010.65 1010.52 1010.45 1010.45 1010.51 1010.62 1010.78 1011.02 1011.32 1011.70 1012.14 1012.64 1013.18 1013.73 1014.27 1014.78 1015.24 1015.63 1015.95 1016.21 1016.40 1016.53 1016.61 1016.65 1016.66 1016.65 1016.62 1016.59 1016.54 1016.49 1016.45 1016.41
1016.37 1016.10 1015.69 1015.15 1014.51 1013.79 1013.05 1012.34 1011.68 1011.13 1010.69 1010.36 1010.16 1010.05 1010.03 1010.08 1010.17 1010.32 1010.51 1010.75 1011.04 1011.40 1011.81 1012.27 1012.78 1013.31 1013.85 1014.37 1014.85 1015.28 1015.65 1015.95 1016.19 1016.36 1016.49 1016.57 1016.62 1016.65 1016.67 1016.69 1016.69 1016.70 1016.70 1016.69
1015.80 1015.49 1015.07 1014.54 1013.92 1013.25 1012.55 1011.88 1011.28 1010.77 1010.37 1010.08 1009.91 1009.84 1009.84 1009.91 1010.03 1010.18 1010.36 1010.59 1010.85 1011.16 1011.54 1011.96 1012.43 1012.94 1013.47 1013.99 1014.48 1014.94 1015.33 1015.67 1015.94 1016.14 1016.30 1016.42 1016.51 1016.58 1016.65 1016.71 1016.77 1016.82 1016.86 1016.89
1015.02 1014.67 1014.24 1013.74 1013.18 1012.59 1012.00 1011.43 1010.93 1010.52 1010.20 1009.98 1009.86 1009.82 1009.85 1009.92 1010.03 1010.16 1010.31 1010.50 1010.72 1010.98 1011.30 1011.68 1012.12 1012.60 1013.10 1013.62 1014.11 1014.58 1014.99 1015.35 1015.64 1015.87 1016.06 1016.21 1016.33 1016.44 1016.54 1016.65 1016.75 1016.84 1016.92 1016.98
1014.06 1013.66 1013.22 1012.76 1012.29 1011.82 1011.36 1010.95 1010.60 1010.31 1010.11 1009.99 1009.93 1009.93 1009.97 1010.03 1010.11 1010.21 1010.31 1010.44 1010.60 1010.81 1011.07 1011.40 1011.79 1012.23 1012.71 1013.21 1013.71 1014.17 1014.60 1014.97 1015.28 1015.54 1015.75 1015.92 1016.08 1016.22 1016.36 1016.50 1016.63 1016.76 1016.87 1016.95
1012.97 1012.51 1012.07 1011.66 1011.28 1010.95 1010.65 1010.42 1010.23 1010.11 1010.04 1010.02 1010.04 1010.07 1010.12 1010.17 1010.21 1010.25 1010.29 1010.35 1010.45 1010.59 1010.79 1011.06 1011.40 1011.81 1012.26 1012.74 1013.22 1013.68 1014.11 1014.50 1014.83 1015.12 1015.36 1015.57 1015.75 1015.93 1016.10 1016.27 1016.44 1016.59 1016.72 1016.81
1011.83 1011.30 1010.86 1010.50 1010.22 1010.03 1009.90 1009.85 1009.84 1009.88 1009.95 1010.03 1010.11 1010.18 1010.23 1010.26 1010.26 1010.24 1010.21 1010.20 1010.22 1010.29 1010.43 1010.64 1010.93 1011.29 1011.70 1012.15 1012.62 1013.08 1013.52 1013.92 1014.28 1014.60 1014.88 1015.13 1015.36 1015.58 1015.79 1015.99 1016.18 1016.34 1016.48 1016.59
1010.71 1010.12 1009.67 1009.37 1009.19 1009.13 1009.17 1009.28 1009.45 1009.63 1009.83 1010.00 1010.14 1010.23 1010.28 1010.27 1010.22 1010.14 1010.05 1009.97 1009.92 1009.92 1009.99 1010.14 1010.37 1010.68 1011.05 1011.47 1011.91 1012.37 1012.82 1013.24 1013.64 1014.00 1014.33 1014.64 1014.92 1015.19 1015.43 1015.67 1015.88 1016.06 1016.20 1016.30
Thickness
5526 5525 5526 5531 5537 5541 5542 5545 5546 5553 5560 5559 5560 5565 5572 5577 5578 5577 5577 5579 5580 5582 5585 5588 5590 5593 5596 5599 5602 5607 5610 5613 5616 5619 5622 5625 5628 5632 5636 5641 5646 5648 5650 5652
5521 5522 5529 5534 5536 5538 5540 5541 5543 5549 5555 5555 5556 5562 5570 5574 5572 5572 5572 5571 5572 5573 5576 5579 5581 5584 5586 5588 5591 5596 5599 5602 5605 5608 5613 5616 5619 5621 5626 5630 5634 5637 5639 5642
5520 5523 5530 5531 5532 5533 5536 5537 5539 5540 5546 5552 5552 5556 5566 5569 5569 5567 5566 5565 5564 5566 5566 5569 5572 5574 5576 5578 5581 5585 5588 5591 5594 5598 5602 5606 5608 5611 5614 5617 5621 5625 5629 5631
5522 5526 5527 5528 5530 5531 5529 5536 5538 5537 5533 5536 5545 5538 5556 5562 5562 5561 5558 5556 5556 5557 5558 5560 5562 5564 5567 5569 5572 5575 5577 5580 5584 5588 5591 5594 5596 5599 5603 5606 5609 5613 5616 5619
5521 5524 5525 5525 5527 5527 5528 5535 5535 5535 5532 5532 5541 5536 5548 5558 5555 5554 5552 5551 5550 5550 5551 5552 5553 5555 5558 5560 5563 5565 5567 5570 5573 5577 5580 5583 5585 5588 5591 5594 5597 5600 5604 5607
5523 5525 5525 5524 5527 5529 5530 5532 5536 5535 5530 5527 5543 5539 5545 5550 5552 5550 5548 5545 5543 5543 5543 5544 5546 5547 5549 5551 5553 5556 5558 5561 5564 5567 5569 5572 5574 5576 5579 5582 5585 5588 5591 5594
5523 5525 5526 5526 5525 5528 5527 5523 5524 5524 5524 5535 5550 5544 5543 5553 5553 5548 5543 5540 5538 5537 5536 5536 5538 5538 5540 5542 5544 5546 5549 5551 5554 5557 5560 5561 5563 5565 5568 5571 5574 5576 5579 5583
5520 5519 5526 5527 5526 5523 5525 5524 5519 5521 5530 5538 5545 5540 5546 5552 5549 5546 5542 5538 5535 5532 5531 5530 5530 5531 5532 5534 5537 5539 5541 5543 5545 5548 5550 5551 5553 5555 5557 5561 5563 5566 5570 5573
5519 5521 5529 5530 5530 5528 5525 5525 5527 5521 5528 5530 5540 5547 5548 5549 5545 5542 5539 5536 5532 5529 5527 5526 5526 5527 5527 5528 5529 5531 5533 5534 5537 5539 5541 5543 5544 5546 5549 5552 5555 5557 5560 5563
5521 5518 5529 5531 5531 5528 5526 5526 5521 5519 5520 5529 5543 5546 5543 5541 5541 5540 5536 5533 5530 5527 5525 5523 5522 5522 5522 5522 5523 5524 5526 5527 5529 5530 5532 5535 5536 5538 5542 5545 5547 5549 5551 5554
5523 5518 5526 5530 5528 5527 5525 5524 5523 5521 5524 5519 5526 5538 5551 5547 5543 5537 5534 5532 5528 5525 5522 5520 5518 5518 5518 5518 5518 5518 5520 5522 5523 5524 5526 5528 5530 5532 5535 5537 5539 5541 5543 5546
5524 5519 5519 5531 5537 5534 5530 5528 5524 5514 5518 5523 5519 5530 5550 5547 5543 5538 5534 5531 5527 5524 5521 5519 5517 5516 5515 5514 5514 5515 5515 5517 5518 5519 5521 5522 5524 5526 5529 5530 5532 5534 5537 5538
5523 5518 5514 5527 5527 5527 5527 5530 5529 5523 5515 5514 5516 5530 5545 5544 5541 5538 5534 5530 5526 5523 5520 5518 5516 5514 5512 5511 5511 5512 5512 5512 5514 5515 5517 5518 5520 5521 5523 5525 5527 5529 5530 5531
5523 5518 5515 5517 5524 5526 5526 5529 5529 5521 5507 5515 5527 5533 5540 5540 5538 5536 5533 5530 5526 5523 5520 5517 5514 5512 5511 5510 5510 5509 5509 5510 5511 5512 5514 5515 5516 5517 5518 5520 5521 5523 5523 5524
5522 5518 5523 5527 5532 5533 5531 5532 5532 5524 5521 5519 5532 5537 5541 5540 5538 5537 5534 5531 5528 5524 5521 5517 5514 5512 5511 5510 5510 5509 5509 5509 5509 5510 5511 5511 5512 5513 5514 5515 5516 5516 5517 5518
5522 5519 5522 5526 5537 5536 5533 5537 5537 5535 5535 5534 5535 5538 5546 5544 5542 5538 5534 5532 5529 5525 5521 5519 5516 5513 5511 5509 5509 5509 5508 5508 5508 5508 5509 5509 5509 5509 5509 5510 5510 5510 5510 5510
5519 5518 5517 5519 5535 5532 5530 5546 5544 5543 5546 5541 5536 5543 5547 5544 5542 5538 5535 5532 5529 5526 5523 5520 5517 5514 5512 5510 5509 5508 5508 5508 5508 5507 5506 5506 5505 5504 5504 5505 5504 5503 5503 5503
5514 5513 5509 5514 5522 5521 5550 5557 5554 5550 5551 5550 5549 5549 5548 5545 5543 5541 5537 5533 5530 5528 5524 5521 5517 5515 5513 5511 5510 5509 5508 5507 5505 5504 5503 5502 5501 5500 5500 5499 5498 5497 5497 5496
5513 5508 5507 5509 5513 5533 5554 5553 5551 5547 5548 5554 5551 5550 5547 5545 5541 5537 5538 5534 5530 5527 5525 5521 5518 5515 5513 5511 5509 5508 5506 5504 5502 5501 5499 5499 5498 5496 5495 5493 5491 5491 5490 5489
5512 5507 5500 5508 5509 5522 5553 5552 5552 5546 5541 5555 5554 5549 5546 5542 5529 5534 5538 5535 5531 5528 5524 5521 5517 5514 5511 5510 5508 5505 5503 5501 5499 5498 5497 5495 5494 5492 5490 5488 5486 5485 5484 5482
5501 5499 5497 5499 5507 5530 5551 5548 5545 5535 5545 5554 5553 5550 5546 5540 5536 5536 5536 5533 5530 5527 5524 5521 5517 5512 5510 5508 5506 5503 5501 5499 5498 5496 5494 5492 5490 5488 5486 5484 5481 5479 5477 5475
5510 5505 5505 5506 5506 5526 5547 5541 5539 5544 5552 5553 5551 5548 5546 5542 5539 5536 5533 5530 5527 5524 5522 5519 5514 5511 5509 5507 5504 5501 5499 5498 5495 5493 5490 5488 5486 5484 5482 5478 5475 5473 5470 5467
5522 5524 5523 5524 5533 5548 5546 5546 5549 5550 5548 5549 5546 5545 5543 5539 5535 5533 5530 5527 5525 5522 5519 5516 5512 5509 5506 5504 5502 5499 5497 5495 5492 5489 5486 5483 5481 5478 5475 5472 5469 5465 5463 5460
5532 5532 5525 5525 5539 5546 5547 5547 5548 5547 5545 5545 5544 5541 5538 5535 5532 5529 5526 5524 5521 5519 5516 5513 5510 5506 5503 5501 5499 5497 5494 5491 5488 5484 5481 5478 5475 5471 5468 5465 5462 5458 5455 5452
5525 5522 5515 5520 5534 5539 5545 5546 5546 5545 5543 5541 5539 5537 5534 5531 5528 5525 5523 5520 5518 5516 5513 5510 5507 5504 5502 5499 5496 5494 5491 5487 5483 5479 5476 5473 5469 5465 5461 5458 5454 5451 5448 5444
5522 5518 5512 5523 5536 5534 5541 5544 5543 5540 5537 5535 5533 5531 5530 5528 5525 5523 5520 5517 5515 5512 5510 5506 5503 5501 5498 5495 5492 5490 5486 5482 5478 5474 5470 5466 5462 5458 5454 5449 5446 5444 5440 5437